Regional Weather Roundup
Issued by NWS

Home | Current Version | Previous Version | Text Only | Print | Product List | Glossary On
Versions: 1 2 3 4 5 6 7 8 9 10 11 12 13 14 15 16 17 18 19 20 21 22 23 24 25 26 27 28 29 30 31 32 33 34 35 36 37 38 39 40 41 42 43 44 45 46 47 48 49 50
000
ASCA44 KEWX 230420
RWRMX

LATIN AMERICA AND CARIBBEAN REGIONAL WEATHER ROUNDUP
NATIONAL WEATHER SERVICE AUSTIN/SAN ANTONIO TX
1000 PM CST MON JAN 22 2018

NOTE: "FAIR" INDICATED FEW OR NO CLOUDS BELOW 12,000 FEET WITH NO
SIGNIFICANT WEATHER AND/OR OBSTRUCTIONS TO VISIBILITY.

BAJA CALIFORNIA

CITY           SKY/WX    TMP DP  RH WIND       PRES   REMARKS
LA PAZ         PTCLDY    63  48  59 NE12      29.99S
MEXICALI       CLEAR     52  16  24 CALM      30.18S
S.J. DEL CABO  PTCLDY    61  50  67 W12       29.95S
TIJUANA        CLEAR     52  37  58 CALM      30.18F

NORTHWESTERN MEXICO

CITY           SKY/WX    TMP DP  RH WIND       PRES   REMARKS
CULIACAN       CLOUDY    63  48  59 CALM      29.89R
HERMOSILLO     CLEAR     57  18  21 SW5       30.01S
CD. JUAREZ     PTCLDY    39   7  26 CALM      30.21R
LOS MOCHIS     CLEAR     57  46  67 NW10      29.95S

NORTHEASTERN MEXICO

CITY           SKY/WX    TMP DP  RH WIND       PRES   REMARKS
CHIHUAHUA      CLEAR     36   9  32 CALM      30.20S
MONCLOVA         N/A    N/A N/A N/A MISG        N/A
MONTERREY      CLEAR     54  27  35 S7        30.18R
REYNOSA        CLOUDY    59  30  33 CALM      30.16R
SALTILLO       PTCLDY    45  34  65 CALM      30.25R
TORREON        MOCLDY    59  25  27 CALM      30.11S
CD. VICTORIA     N/A    N/A N/A N/A MISG        N/A

WESTERN MEXICO

CITY           SKY/WX    TMP DP  RH WIND       PRES   REMARKS
AGUASCALIENTES CLOUDY    57  23  26 NW6       30.20R
COLIMA           N/A    N/A N/A N/A MISG        N/A
DEL BAJIO      MOCLDY    57  30  35 CALM      30.28R
GUADALAJARA    MOCLDY    59  30  33 CALM      30.13R
MAZATLAN       MOCLDY    63  57  82 CALM      29.88R
P. VALLARTA    CLOUDY    68  68 100 N5        29.88
URUAPAN          N/A    N/A N/A N/A MISG        N/A
ZACATECAS      MOCLDY    54  12  19 S7        30.22R

CENTRAL MEXICO

CITY           SKY/WX    TMP DP  RH WIND       PRES   REMARKS
CUERNAVACA       N/A    N/A N/A N/A MISG        N/A
MEXICO CITY    PTCLDY    61  37  41 NW6       30.28R
MORELIA        PTCLDY    57  37  47 SE3       30.19R
POZA RICA        N/A    N/A N/A N/A MISG        N/A
QUERETARO      PTCLDY    55  46  71 E16       30.29R
TAMPICO        MOCLDY    66  50  55 MISG      30.11R
TOLUCA         CLEAR     50  36  57 NW7       30.34R WCI  47

SOUTHERN MEXICO

CITY           SKY/WX    TMP DP  RH WIND       PRES   REMARKS
ACAPULCO       PTCLDY    79  73  83 CALM      29.82S
B. DE HUATULCO   N/A    N/A N/A N/A MISG        N/A
P. ESCONDIDO     N/A    N/A N/A N/A MISG        N/A
VERACRUZ       PTCLDY    73  70  88 N12G23    30.00R

YUCATAN PENINSULA

CITY           SKY/WX    TMP DP  RH WIND       PRES   REMARKS
CAMPECHE       PTCLDY    77  75  94 N12       29.93R
CANCUN         PTCLDY    73  73 100 MISG      30.00R
CHETUMAL       CLEAR     75  73  94 CALM      29.96S
CD. DEL CARMEN   N/A    N/A N/A N/A MISG        N/A
COZUMEL        PTCLDY    73  72  94 CALM      29.98R
MERIDA         MOCLDY    77  72  83 NW6       29.98S
MINATITLAN     CLOUDY    75  73  94 N9        29.96R
TAPACHULA      CLEAR     73  72  94 CALM      29.84R
TUX. GUTIERREZ CLEAR     77  59  53 NW15      29.93R
VILLAHERMOSA   PTCLDY    73  72  94 N5        29.97R

CENTRAL AMERICA

CITY           SKY/WX    TMP DP  RH WIND       PRES   REMARKS
MANAGUA        PTCLDY    77  70  78 E7        29.83S

CARIBBEAN

CITY           SKY/WX    TMP DP  RH WIND       PRES   REMARKS
ARUBA          PTCLDY    81  73  78 E20       29.86S
CURACAO        PTCLDY    81  73  78 E14       29.89F
KINGSTON       PTCLDY    79  70  73 E3        29.92F
NASSAU         PTCLDY    75  70  83 E6        30.10S
SAN JUAN       PTCLDY    79  72  78 E9        30.02S
SANTO DOMINGO  PTCLDY    75  72  88 NE6       30.00S
ST. CROIX      CLEAR     73  70  88 E9        30.00F
ST. THOMAS     CLEAR     75  70  83 E8        30.00F

$$




USA.gov is the U.S. government's official web portal to all federal, state and local government web resources and services.